AMX249 MMMY-MMGL

Flight info

Callsign AMX249
Flight time 1h 8m
Altitude 36000
Route URTOB1A URTOB UJ11 MEZCA MEZCA1B
Aircraft B738/M-SDE2E3FGHIRWXY/LB1

Departure

Time 2026-04-22 02:18
Airport Monterrey International Airport (MMMY)

Arrival

Time 2026-04-22 03:26
Airport Guadalajara International Airport (MMGL)
Time Latitude Longitude Altitude Speed Heading
2026-04-22 01:32 25.77486 -100.10869 1275 ft 0 kts 75°
2026-04-22 01:56 25.77483 -100.10880 1275 ft 3 kts 75°
2026-04-22 01:57 25.77479 -100.10898 1275 ft 3 kts 68°
2026-04-22 01:57 25.77470 -100.10915 1275 ft 3 kts 26°
2026-04-22 01:57 25.77453 -100.10918 1275 ft 3 kts 349°
2026-04-22 01:57 25.77442 -100.10916 1277 ft 0 kts 346°
2026-04-22 02:03 25.77444 -100.10916 1278 ft 2 kts 346°
2026-04-22 02:04 25.77616 -100.10968 1273 ft 16 kts 335°
2026-04-22 02:04 25.77690 -100.11065 1272 ft 15 kts 302°
2026-04-22 02:04 25.77708 -100.11096 1274 ft 5 kts 303°
2026-04-22 02:05 25.77747 -100.11130 1272 ft 10 kts 353°
2026-04-22 02:05 25.77812 -100.11099 1272 ft 10 kts 29°
2026-04-22 02:05 25.77856 -100.11101 1273 ft 7 kts 313°
2026-04-22 02:05 25.77882 -100.11149 1275 ft 7 kts 301°
2026-04-22 02:06 25.77906 -100.11193 1277 ft 0 kts 303°
2026-04-22 02:06 25.77916 -100.11211 1274 ft 5 kts 303°
2026-04-22 02:06 25.77940 -100.11251 1275 ft 8 kts 303°
2026-04-22 02:07 25.77968 -100.11307 1276 ft 8 kts 299°
2026-04-22 02:07 25.77987 -100.11342 1277 ft 8 kts 301°
2026-04-22 02:07 25.78006 -100.11377 1280 ft 1 kts 301°
2026-04-22 02:07 25.78012 -100.11388 1277 ft 3 kts 301°
2026-04-22 02:08 25.78031 -100.11421 1279 ft 7 kts 301°
2026-04-22 02:08 25.78061 -100.11476 1279 ft 10 kts 301°
2026-04-22 02:08 25.78103 -100.11552 1280 ft 13 kts 301°
2026-04-22 02:08 25.78156 -100.11648 1282 ft 16 kts 301°
2026-04-22 02:09 25.78188 -100.11707 1285 ft 0 kts 301°
2026-04-22 02:10 25.78192 -100.11714 1285 ft 3 kts 301°
2026-04-22 02:10 25.78209 -100.11745 1286 ft 6 kts 301°
2026-04-22 02:10 25.78242 -100.11795 1287 ft 9 kts 328°
2026-04-22 02:10 25.78292 -100.11791 1289 ft 0 kts 26°
2026-04-22 02:11 25.78297 -100.11788 1286 ft 2 kts 26°
2026-04-22 02:11 25.78320 -100.11775 1287 ft 5 kts 28°
2026-04-22 02:11 25.78328 -100.11771 1287 ft 0 kts 28°
2026-04-22 02:14 25.78328 -100.11770 1287 ft 1 kts 28°
2026-04-22 02:14 25.78352 -100.11755 1287 ft 6 kts 33°
2026-04-22 02:14 25.78391 -100.11727 1288 ft 4 kts 32°
2026-04-22 02:15 25.78407 -100.11706 1288 ft 4 kts 78°
2026-04-22 02:15 25.78403 -100.11691 1287 ft 0 kts 114°
2026-04-22 02:15 25.78402 -100.11690 1287 ft 0 kts 119°
2026-04-22 02:16 25.78402 -100.11689 1287 ft 1 kts 119°
2026-04-22 02:17 25.78385 -100.11655 1287 ft 17 kts 119°
2026-04-22 02:17 25.78174 -100.11270 1277 ft 99 kts 122°
2026-04-22 02:17 25.77687 -100.10391 1268 ft 167 kts 121°
2026-04-22 02:17 25.76986 -100.09142 1533 ft 205 kts 121°
2026-04-22 02:18 25.76232 -100.07754 2296 ft 212 kts 120°
2026-04-22 02:18 25.75486 -100.06352 3202 ft 210 kts 121°
2026-04-22 02:18 25.74732 -100.04882 3543 ft 230 kts 120°
2026-04-22 02:18 25.73779 -100.03424 3981 ft 239 kts 143°
2026-04-22 02:19 25.72213 -100.02842 4569 ft 244 kts 180°
2026-04-22 02:19 25.70574 -100.03324 5205 ft 248 kts 207°
2026-04-22 02:19 25.69219 -100.04524 5836 ft 252 kts 223°
2026-04-22 02:19 25.68036 -100.05983 6418 ft 256 kts 227°
2026-04-22 02:20 25.66882 -100.07498 7019 ft 259 kts 227°
2026-04-22 02:20 25.65690 -100.09070 7350 ft 276 kts 227°
2026-04-22 02:20 25.64422 -100.10733 7907 ft 286 kts 227°
2026-04-22 02:20 25.63131 -100.12418 8676 ft 288 kts 227°
2026-04-22 02:21 25.61824 -100.14112 9417 ft 291 kts 227°
2026-04-22 02:21 25.60500 -100.15821 10179 ft 292 kts 228°
2026-04-22 02:21 25.59161 -100.17541 10559 ft 309 kts 228°
2026-04-22 02:21 25.57704 -100.19406 10743 ft 331 kts 229°
2026-04-22 02:22 25.56134 -100.21415 10955 ft 349 kts 230°
2026-04-22 02:22 25.54529 -100.23471 11462 ft 356 kts 230°
2026-04-22 02:22 25.52931 -100.25510 12223 ft 354 kts 230°
2026-04-22 02:22 25.51318 -100.27566 12930 ft 355 kts 229°
2026-04-22 02:23 25.49673 -100.29653 13609 ft 356 kts 231°
2026-04-22 02:23 25.48091 -100.31743 14173 ft 360 kts 232°
2026-04-22 02:23 25.46420 -100.33860 14834 ft 361 kts 230°
2026-04-22 02:23 25.44746 -100.35959 15348 ft 366 kts 231°
2026-04-22 02:24 25.43088 -100.38050 15977 ft 367 kts 231°
2026-04-22 02:24 25.41403 -100.40186 16543 ft 370 kts 231°
2026-04-22 02:24 25.39707 -100.42338 17129 ft 372 kts 231°
2026-04-22 02:24 25.37969 -100.44490 17642 ft 377 kts 228°
2026-04-22 02:25 25.35961 -100.46378 18257 ft 380 kts 220°
2026-04-22 02:25 25.33846 -100.48153 18837 ft 381 kts 221°
2026-04-22 02:25 25.31743 -100.49951 19308 ft 385 kts 221°
2026-04-22 02:25 25.29616 -100.51781 19691 ft 389 kts 221°
2026-04-22 02:26 25.27473 -100.53627 20133 ft 390 kts 222°
2026-04-22 02:26 25.25335 -100.55469 20150 ft 391 kts 221°
2026-04-22 02:26 25.23197 -100.57311 20192 ft 392 kts 221°
2026-04-22 02:26 25.21032 -100.59177 20486 ft 397 kts 221°
2026-04-22 02:27 25.18857 -100.61049 21064 ft 396 kts 222°
2026-04-22 02:27 25.16677 -100.62926 21600 ft 396 kts 222°
2026-04-22 02:27 25.14499 -100.64802 22061 ft 398 kts 222°
2026-04-22 02:27 25.12305 -100.66689 22458 ft 401 kts 222°
2026-04-22 02:28 25.10098 -100.68588 22808 ft 405 kts 222°
2026-04-22 02:28 25.07868 -100.70501 23240 ft 406 kts 222°
2026-04-22 02:28 25.05639 -100.72417 23664 ft 407 kts 222°
2026-04-22 02:28 25.03403 -100.74337 24062 ft 409 kts 222°
2026-04-22 02:29 25.01152 -100.76270 24432 ft 411 kts 223°
2026-04-22 02:29 24.98891 -100.78211 24784 ft 413 kts 223°
2026-04-22 02:29 24.96624 -100.80154 25158 ft 414 kts 223°
2026-04-22 02:29 24.94343 -100.82109 25497 ft 416 kts 223°
2026-04-22 02:30 24.92054 -100.84070 25837 ft 418 kts 223°
2026-04-22 02:30 24.89756 -100.86038 26162 ft 419 kts 223°
2026-04-22 02:30 24.87452 -100.88010 26525 ft 420 kts 223°
2026-04-22 02:30 24.85137 -100.89991 26833 ft 422 kts 223°
2026-04-22 02:31 24.82811 -100.91980 27104 ft 425 kts 223°
2026-04-22 02:31 24.80476 -100.93975 27417 ft 426 kts 223°
2026-04-22 02:31 24.78130 -100.95979 27709 ft 428 kts 223°
2026-04-22 02:31 24.75767 -100.97995 28013 ft 429 kts 223°
2026-04-22 02:32 24.73413 -101.00005 28313 ft 430 kts 223°
2026-04-22 02:32 24.71149 -101.01936 28566 ft 431 kts 223°
2026-04-22 02:32 24.68772 -101.03963 28803 ft 433 kts 223°
2026-04-22 02:32 24.66385 -101.05998 29047 ft 435 kts 223°
2026-04-22 02:33 24.63997 -101.08034 29305 ft 436 kts 223°
2026-04-22 02:33 24.61596 -101.10077 29544 ft 437 kts 223°
2026-04-22 02:33 24.59196 -101.12119 29911 ft 436 kts 223°
2026-04-22 02:33 24.56803 -101.14151 30330 ft 433 kts 223°
2026-04-22 02:34 24.54425 -101.16171 30762 ft 430 kts 223°
2026-04-22 02:34 24.52066 -101.18174 31121 ft 429 kts 223°
2026-04-22 02:34 24.49705 -101.20180 31499 ft 427 kts 223°
2026-04-22 02:34 24.47359 -101.22172 31843 ft 426 kts 223°
2026-04-22 02:35 24.45020 -101.24158 32200 ft 424 kts 223°
2026-04-22 02:35 24.42683 -101.26140 32514 ft 423 kts 223°
2026-04-22 02:35 24.40376 -101.28096 32853 ft 422 kts 223°
2026-04-22 02:35 24.38058 -101.30060 33208 ft 420 kts 223°
2026-04-22 02:36 24.35752 -101.32014 33514 ft 418 kts 223°
2026-04-22 02:36 24.33449 -101.33965 33831 ft 417 kts 223°
2026-04-22 02:36 24.31153 -101.35908 34174 ft 415 kts 222°
2026-04-22 02:36 24.28901 -101.37814 34491 ft 413 kts 222°
2026-04-22 02:37 24.26625 -101.39739 34685 ft 414 kts 222°
2026-04-22 02:37 24.24341 -101.41672 34858 ft 415 kts 222°
2026-04-22 02:37 24.22056 -101.43602 35130 ft 414 kts 222°
2026-04-22 02:37 24.19780 -101.45523 35377 ft 413 kts 222°
2026-04-22 02:38 24.17464 -101.47403 35522 ft 417 kts 217°
2026-04-22 02:38 24.14918 -101.48973 35696 ft 423 kts 211°
2026-04-22 02:38 24.12161 -101.50155 35898 ft 429 kts 204°
2026-04-22 02:38 24.09316 -101.51127 36137 ft 428 kts 203°
2026-04-22 02:39 24.06464 -101.52085 36209 ft 430 kts 203°
2026-04-22 02:39 24.00745 -101.54018 36208 ft 429 kts 203°
2026-04-22 02:40 23.95081 -101.55957 36220 ft 427 kts 203°
2026-04-22 02:40 23.89420 -101.57910 36221 ft 427 kts 203°
2026-04-22 02:41 23.83763 -101.59864 36237 ft 426 kts 203°
2026-04-22 02:41 23.78106 -101.61813 36240 ft 426 kts 203°
2026-04-22 02:42 23.72445 -101.63762 36242 ft 427 kts 203°
2026-04-22 02:42 23.66776 -101.65711 36238 ft 427 kts 203°
2026-04-22 02:43 23.61102 -101.67663 36250 ft 428 kts 203°
2026-04-22 02:43 23.55428 -101.69609 36248 ft 428 kts 203°
2026-04-22 02:44 23.49734 -101.71562 36250 ft 429 kts 203°
2026-04-22 02:44 23.44076 -101.73502 36249 ft 429 kts 203°
2026-04-22 02:45 23.38374 -101.75454 36257 ft 430 kts 203°
2026-04-22 02:45 23.33597 -101.77088 36261 ft 430 kts 203°
2026-04-22 02:46 23.26941 -101.79360 36267 ft 432 kts 203°
2026-04-22 02:46 23.22133 -101.80999 36272 ft 432 kts 203°
2026-04-22 02:47 23.16389 -101.82957 36264 ft 433 kts 203°
2026-04-22 02:47 23.10636 -101.84915 36280 ft 433 kts 203°
2026-04-22 02:48 23.04878 -101.86874 36290 ft 434 kts 203°
2026-04-22 02:48 22.99160 -101.88817 36284 ft 434 kts 203°
2026-04-22 02:49 22.93388 -101.90777 36282 ft 435 kts 203°
2026-04-22 02:49 22.87619 -101.92735 36290 ft 435 kts 203°
2026-04-22 02:50 22.81840 -101.94695 36284 ft 435 kts 202°
2026-04-22 02:50 22.76053 -101.96654 36282 ft 435 kts 202°
2026-04-22 02:51 22.70273 -101.98611 36288 ft 435 kts 202°
2026-04-22 02:51 22.64773 -102.00966 36298 ft 430 kts 209°
2026-04-22 02:52 22.59340 -102.03683 36293 ft 430 kts 210°
2026-04-22 02:52 22.53901 -102.06392 36291 ft 431 kts 209°
2026-04-22 02:53 22.48447 -102.09058 36294 ft 430 kts 209°
2026-04-22 02:53 22.42982 -102.11705 36315 ft 430 kts 209°
2026-04-22 02:54 22.37538 -102.14336 36295 ft 431 kts 209°
2026-04-22 02:54 22.32055 -102.16985 36295 ft 432 kts 209°
2026-04-22 02:55 22.26563 -102.19636 36296 ft 433 kts 209°
2026-04-22 02:55 22.21125 -102.22258 36296 ft 434 kts 209°
2026-04-22 02:56 22.15611 -102.24913 36293 ft 434 kts 209°
2026-04-22 02:56 22.10092 -102.27569 36296 ft 434 kts 209°
2026-04-22 02:56 22.07320 -102.28904 35961 ft 440 kts 209°
2026-04-22 02:57 22.04519 -102.30252 35450 ft 440 kts 209°
2026-04-22 02:57 22.01724 -102.31596 34815 ft 440 kts 208°
2026-04-22 02:57 21.98950 -102.32927 34383 ft 435 kts 208°
2026-04-22 02:57 21.96200 -102.34245 33935 ft 431 kts 208°
2026-04-22 02:58 21.93467 -102.35558 33502 ft 427 kts 208°
2026-04-22 02:58 21.90767 -102.36852 33069 ft 424 kts 208°
2026-04-22 02:58 21.88083 -102.38138 32637 ft 421 kts 208°
2026-04-22 02:58 21.85419 -102.39414 32198 ft 417 kts 209°
2026-04-22 02:59 21.82775 -102.40679 31778 ft 414 kts 209°
2026-04-22 02:59 21.80143 -102.41940 31359 ft 412 kts 209°
2026-04-22 02:59 21.77534 -102.43190 30928 ft 409 kts 209°
2026-04-22 02:59 21.74944 -102.44430 30519 ft 406 kts 209°
2026-04-22 03:00 21.72364 -102.45665 30096 ft 404 kts 209°
2026-04-22 03:00 21.69805 -102.46889 29683 ft 404 kts 209°
2026-04-22 03:00 21.67194 -102.48143 29274 ft 421 kts 209°
2026-04-22 03:00 21.64463 -102.49457 28781 ft 436 kts 209°
2026-04-22 03:01 21.61682 -102.50789 28320 ft 437 kts 208°
2026-04-22 03:01 21.58910 -102.52108 27840 ft 435 kts 208°
2026-04-22 03:01 21.56152 -102.53419 27363 ft 431 kts 208°
2026-04-22 03:01 21.53421 -102.54719 26910 ft 427 kts 208°
2026-04-22 03:02 21.50724 -102.56001 26454 ft 422 kts 207°
2026-04-22 03:02 21.48070 -102.57260 26008 ft 421 kts 208°
2026-04-22 03:02 21.45398 -102.58537 25565 ft 418 kts 207°
2026-04-22 03:02 21.42745 -102.59804 25112 ft 417 kts 207°
2026-04-22 03:03 21.40100 -102.61066 24668 ft 416 kts 207°
2026-04-22 03:03 21.37458 -102.62324 24229 ft 415 kts 207°
2026-04-22 03:03 21.34817 -102.63581 23780 ft 414 kts 207°
2026-04-22 03:03 21.33594 -102.64162 23573 ft 414 kts 207°
2026-04-22 03:04 21.31023 -102.65513 23078 ft 411 kts 215°
2026-04-22 03:04 21.28726 -102.67326 22569 ft 408 kts 218°
2026-04-22 03:04 21.26283 -102.68860 22146 ft 408 kts 205°
2026-04-22 03:04 21.23591 -102.69786 21772 ft 405 kts 195°
2026-04-22 03:05 21.20830 -102.70244 21283 ft 398 kts 187°
2026-04-22 03:05 21.18133 -102.70500 21112 ft 379 kts 187°
2026-04-22 03:05 21.15546 -102.70747 20677 ft 370 kts 187°
2026-04-22 03:05 21.12984 -102.71003 19985 ft 369 kts 187°
2026-04-22 03:06 21.10430 -102.71266 19302 ft 368 kts 188°
2026-04-22 03:06 21.07895 -102.71532 18688 ft 365 kts 187°
2026-04-22 03:06 21.05378 -102.71799 18094 ft 361 kts 187°
2026-04-22 03:06 21.02892 -102.72064 17467 ft 358 kts 187°
2026-04-22 03:07 21.00420 -102.72329 16876 ft 355 kts 187°
2026-04-22 03:07 20.97994 -102.72589 16296 ft 351 kts 187°
2026-04-22 03:07 20.95577 -102.72847 15701 ft 348 kts 187°
2026-04-22 03:07 20.93181 -102.73103 15184 ft 344 kts 187°
2026-04-22 03:08 20.90822 -102.73355 14759 ft 336 kts 187°
2026-04-22 03:08 20.88525 -102.73600 14403 ft 327 kts 187°
2026-04-22 03:08 20.86286 -102.73839 14049 ft 319 kts 187°
2026-04-22 03:08 20.84103 -102.74072 13767 ft 309 kts 187°
2026-04-22 03:09 20.82015 -102.74295 13644 ft 295 kts 187°
2026-04-22 03:09 20.80024 -102.74508 13530 ft 290 kts 187°
2026-04-22 03:09 20.78025 -102.74722 13410 ft 288 kts 187°
2026-04-22 03:09 20.76041 -102.74933 13285 ft 285 kts 187°
2026-04-22 03:10 20.74070 -102.75144 13196 ft 282 kts 187°
2026-04-22 03:10 20.72117 -102.75264 13105 ft 284 kts 174°
2026-04-22 03:10 20.70262 -102.74553 13071 ft 287 kts 149°
2026-04-22 03:10 20.68613 -102.73310 13035 ft 293 kts 143°
2026-04-22 03:11 20.66997 -102.71993 13014 ft 292 kts 143°
2026-04-22 03:11 20.65390 -102.70675 13010 ft 291 kts 143°
2026-04-22 03:11 20.63785 -102.69370 13009 ft 290 kts 143°
2026-04-22 03:11 20.62172 -102.68070 13011 ft 291 kts 143°
2026-04-22 03:12 20.61139 -102.67242 13014 ft 291 kts 143°
2026-04-22 03:12 20.57962 -102.64708 13017 ft 291 kts 143°
2026-04-22 03:12 20.56340 -102.63418 13022 ft 291 kts 144°
2026-04-22 03:13 20.54678 -102.62291 13008 ft 291 kts 160°
2026-04-22 03:13 20.52716 -102.61854 13046 ft 288 kts 174°
2026-04-22 03:13 20.50721 -102.61607 13024 ft 288 kts 175°
2026-04-22 03:13 20.48721 -102.61374 13016 ft 290 kts 175°
2026-04-22 03:14 20.46718 -102.61137 13015 ft 290 kts 174°
2026-04-22 03:14 20.44707 -102.60944 12995 ft 288 kts 183°
2026-04-22 03:14 20.42867 -102.61563 12840 ft 274 kts 218°
2026-04-22 03:14 20.41671 -102.63031 12760 ft 255 kts 242°
2026-04-22 03:15 20.41011 -102.64748 12359 ft 252 kts 258°
2026-04-22 03:15 20.40819 -102.66630 11711 ft 259 kts 268°
2026-04-22 03:15 20.40765 -102.68526 11528 ft 252 kts 269°
2026-04-22 03:15 20.40726 -102.70371 11335 ft 244 kts 269°
2026-04-22 03:16 20.40687 -102.72135 11185 ft 232 kts 269°
2026-04-22 03:16 20.40648 -102.73810 11066 ft 220 kts 269°
2026-04-22 03:16 20.40607 -102.75417 10942 ft 214 kts 268°
2026-04-22 03:16 20.40564 -102.77006 10836 ft 217 kts 268°
2026-04-22 03:17 20.40519 -102.78639 10741 ft 223 kts 268°
2026-04-22 03:17 20.40471 -102.80300 10613 ft 225 kts 268°
2026-04-22 03:17 20.40422 -102.81958 10479 ft 222 kts 268°
2026-04-22 03:17 20.40374 -102.83599 10349 ft 220 kts 268°
2026-04-22 03:18 20.40324 -102.85222 10226 ft 218 kts 268°
2026-04-22 03:18 20.40276 -102.86833 10106 ft 216 kts 268°
2026-04-22 03:18 20.40227 -102.88431 9993 ft 215 kts 268°
2026-04-22 03:18 20.40178 -102.90024 9866 ft 214 kts 268°
2026-04-22 03:19 20.40129 -102.91611 9758 ft 214 kts 268°
2026-04-22 03:19 20.40080 -102.93197 9640 ft 214 kts 267°
2026-04-22 03:19 20.40031 -102.94786 9514 ft 215 kts 267°
2026-04-22 03:19 20.39982 -102.96379 9403 ft 215 kts 267°
2026-04-22 03:20 20.39931 -102.97977 9280 ft 216 kts 267°
2026-04-22 03:20 20.39880 -102.99581 9165 ft 216 kts 267°
2026-04-22 03:20 20.39835 -103.01130 9044 ft 216 kts 269°
2026-04-22 03:20 20.40184 -103.02672 8932 ft 213 kts 293°
2026-04-22 03:21 20.40799 -103.04071 8851 ft 205 kts 292°
2026-04-22 03:21 20.41376 -103.05429 8769 ft 199 kts 293°
2026-04-22 03:21 20.41948 -103.06790 8689 ft 205 kts 294°
2026-04-22 03:21 20.42542 -103.08199 8533 ft 210 kts 294°
2026-04-22 03:22 20.43144 -103.09625 8359 ft 210 kts 294°
2026-04-22 03:22 20.43743 -103.11043 8188 ft 209 kts 294°
2026-04-22 03:22 20.44329 -103.12435 8003 ft 202 kts 294°
2026-04-22 03:22 20.44911 -103.13751 7913 ft 193 kts 295°
2026-04-22 03:23 20.45476 -103.15058 7670 ft 195 kts 293°
2026-04-22 03:23 20.46037 -103.16388 7437 ft 198 kts 293°
2026-04-22 03:23 20.46589 -103.17705 7201 ft 193 kts 293°
2026-04-22 03:23 20.47112 -103.18963 6993 ft 178 kts 292°
2026-04-22 03:24 20.47609 -103.20159 6746 ft 172 kts 291°
2026-04-22 03:24 20.48084 -103.21310 6518 ft 171 kts 293°
2026-04-22 03:24 20.48567 -103.22460 6321 ft 169 kts 292°
2026-04-22 03:24 20.49035 -103.23578 6119 ft 161 kts 291°
2026-04-22 03:25 20.49472 -103.24626 5968 ft 149 kts 292°
2026-04-22 03:25 20.49904 -103.25664 5750 ft 154 kts 292°
2026-04-22 03:25 20.50350 -103.26700 5559 ft 156 kts 290°
2026-04-22 03:25 20.50772 -103.27759 5354 ft 154 kts 291°
2026-04-22 03:26 20.51212 -103.28802 5163 ft 155 kts 291°
2026-04-22 03:26 20.51655 -103.29848 5020 ft 151 kts 290°
2026-04-22 03:26 20.52030 -103.30747 5019 ft 111 kts 294°
2026-04-22 03:26 20.52262 -103.31303 5022 ft 34 kts 294°
2026-04-22 03:27 20.52326 -103.31448 5021 ft 17 kts 298°
2026-04-22 03:27 20.52406 -103.31532 5020 ft 16 kts 336°
2026-04-22 03:27 20.52474 -103.31568 5020 ft 16 kts 329°
2026-04-22 03:27 20.52610 -103.31571 5020 ft 15 kts 20°
2026-04-22 03:28 20.52699 -103.31529 5020 ft 8 kts 25°
2026-04-22 03:28 20.52744 -103.31506 5020 ft 7 kts 32°
2026-04-22 03:28 20.52762 -103.31477 5020 ft 7 kts 73°
2026-04-22 03:28 20.52752 -103.31428 5017 ft 7 kts 110°
2026-04-22 03:29 20.52733 -103.31375 5019 ft 9 kts 112°
2026-04-22 03:29 20.52705 -103.31304 5019 ft 12 kts 114°
2026-04-22 03:29 20.52667 -103.31216 5019 ft 14 kts 115°
2026-04-22 03:29 20.52625 -103.31118 5019 ft 13 kts 114°
2026-04-22 03:30 20.52586 -103.31021 5019 ft 15 kts 113°
2026-04-22 03:30 20.52539 -103.30915 5019 ft 17 kts 116°
2026-04-22 03:30 20.52494 -103.30817 5018 ft 14 kts 116°
2026-04-22 03:30 20.52502 -103.30725 5019 ft 12 kts 70°
2026-04-22 03:31 20.52523 -103.30664 5019 ft 6 kts 70°
2026-04-22 03:31 20.52540 -103.30613 5019 ft 8 kts 74°
2026-04-22 03:31 20.52510 -103.30560 5016 ft 10 kts 156°
2026-04-22 03:31 20.52461 -103.30534 5019 ft 8 kts 144°
2026-04-22 03:32 20.52428 -103.30482 5019 ft 8 kts 113°
2026-04-22 03:32 20.52425 -103.30424 5019 ft 6 kts 55°
2026-04-22 03:32 20.52458 -103.30390 5016 ft 8 kts 71°
2026-04-22 03:32 20.52447 -103.30328 5019 ft 10 kts 106°
2026-04-22 03:33 20.52424 -103.30254 5019 ft 11 kts 110°
2026-04-22 03:33 20.52403 -103.30191 5017 ft 6 kts 110°
2026-04-22 03:33 20.52394 -103.30157 5019 ft 4 kts 89°
2026-04-22 03:33 20.52408 -103.30142 5017 ft 3 kts 32°
2026-04-22 03:34 20.52422 -103.30135 5019 ft 0 kts 20°
2026-04-22 03:34 20.52430 -103.30132 5019 ft 2 kts 20°
2026-04-22 03:34 20.52439 -103.30129 5017 ft 0 kts 19°
2026-04-22 03:34 20.52443 -103.30127 5019 ft 1 kts 19°
2026-04-22 03:35 20.52445 -103.30126 5017 ft 0 kts 19°